Back to Top

Language: 

My Weather Underground Personal Weather Station Historical Data with Graphs...

Delerius Weather Station Historical Data
Daily Summary for July 17, 2017 Units:  Metric    English   Both
« Previous Day
Next Day »
Daily Weekly Monthly Yearly Custom
  High: Low: Average:
Temperature: 26.7 °C 10.9 °C 19.4 °C
Dew Point: 13.4 °C 8.8 °C 10.5 °C
Humidity: 91 % 37 % 59 %
Wind Speed: 17.7 km/h 0 km/h 8.7 km/h
Wind Gust: 33.8 km/h - -
Wind:- - WNW
Pressure: 1023.9 hPa 1020.9 hPa -
Precipitation: 0 mm    
Historical Graphs
 
 
Tabular Data for July 17, 2017
Time Temperature Dew Point Pressure Wind Wind Speed Wind Gust Humidity Rainfall Rate (Hourly) solar Conditions
00:03 13.2 °C 9.6 °C 1023.6 hPa WNW 6.4 km/h 9.7 km/h 79 % 0 mm 0 W/m2
00:08 13.1 °C 9.6 °C 1023.6 hPa WNW 6.4 km/h 11.3 km/h 79 % 0 mm 0 W/m2
00:13 12.9 °C 9.6 °C 1023.6 hPa WNW 6.4 km/h 11.3 km/h 80 % 0 mm 0 W/m2
00:18 12.8 °C 9.4 °C 1023.6 hPa WNW 6.4 km/h 11.3 km/h 80 % 0 mm 0 W/m2
00:23 12.7 °C 9.3 °C 1023.6 hPa WNW 4.8 km/h 9.7 km/h 80 % 0 mm 0 W/m2
00:28 12.6 °C 9.4 °C 1023.6 hPa WNW 4.8 km/h 9.7 km/h 81 % 0 mm 0 W/m2
00:33 12.5 °C 9.3 °C 1023.6 hPa WNW 4.8 km/h 12.9 km/h 81 % 0 mm 0 W/m2
00:38 12.4 °C 9.4 °C 1023.6 hPa WNW 4.8 km/h 12.9 km/h 82 % 0 mm 0 W/m2
00:43 12.4 °C 9.4 °C 1023.6 hPa WNW 6.4 km/h 16.1 km/h 82 % 0 mm 0 W/m2
00:48 12.5 °C 9.5 °C 1023.6 hPa WNW 9.7 km/h 17.7 km/h 82 % 0 mm 0 W/m2
00:53 12.7 °C 9.5 °C 1023.6 hPa NW 11.3 km/h 17.7 km/h 81 % 0 mm 0 W/m2
00:58 12.8 °C 9.6 °C 1023.6 hPa NW 11.3 km/h 17.7 km/h 81 % 0 mm 0 W/m2
01:03 12.9 °C 9.6 °C 1023.6 hPa WNW 11.3 km/h 17.7 km/h 80 % 0 mm 0 W/m2
01:08 13 °C 9.4 °C 1023.6 hPa WNW 11.3 km/h 14.5 km/h 79 % 0 mm 0 W/m2
01:13 13 °C 9.4 °C 1023.6 hPa WNW 9.7 km/h 14.5 km/h 79 % 0 mm 0 W/m2
01:19 12.9 °C 9.3 °C 1023.9 hPa WNW 8 km/h 12.9 km/h 79 % 0 mm 0 W/m2
01:24 12.9 °C 9.3 °C 1023.9 hPa WNW 8 km/h 12.9 km/h 79 % 0 mm 0 W/m2
01:29 12.8 °C 9.2 °C 1023.9 hPa WNW 8 km/h 12.9 km/h 79 % 0 mm 0 W/m2
01:34 12.8 °C 9.2 °C 1023.9 hPa WNW 6.4 km/h 12.9 km/h 79 % 0 mm 0 W/m2
01:39 12.7 °C 9.2 °C 1023.6 hPa WNW 6.4 km/h 9.7 km/h 79 % 0 mm 0 W/m2
01:44 12.6 °C 9.1 °C 1023.6 hPa WNW 8 km/h 12.9 km/h 79 % 0 mm 0 W/m2
01:49 12.6 °C 9.1 °C 1023.6 hPa WNW 9.7 km/h 12.9 km/h 79 % 0 mm 0 W/m2
01:54 12.6 °C 9.1 °C 1023.6 hPa WNW 9.7 km/h 12.9 km/h 79 % 0 mm 0 W/m2
01:59 12.6 °C 9.1 °C 1023.6 hPa WNW 9.7 km/h 12.9 km/h 79 % 0 mm 0 W/m2
02:04 12.4 °C 8.8 °C 1023.6 hPa WNW 8 km/h 12.9 km/h 79 % 0 mm 0 W/m2
02:09 12.3 °C 8.9 °C 1023.6 hPa WNW 8 km/h 12.9 km/h 80 % 0 mm 0 W/m2
02:14 12.2 °C 9.1 °C 1023.6 hPa WNW 4.8 km/h 12.9 km/h 81 % 0 mm 0 W/m2
02:19 12.1 °C 8.9 °C 1023.6 hPa NW 3.2 km/h 9.7 km/h 81 % 0 mm 0 W/m2
02:24 12.1 °C 8.9 °C 1023.6 hPa WNW 4.8 km/h 9.7 km/h 81 % 0 mm 0 W/m2
02:29 12 °C 9 °C 1023.6 hPa WNW 6.4 km/h 11.3 km/h 82 % 0 mm 0 W/m2
02:34 12 °C 9 °C 1023.6 hPa WNW 6.4 km/h 11.3 km/h 82 % 0 mm 0 W/m2
02:39 12 °C 9 °C 1023.6 hPa WNW 6.4 km/h 11.3 km/h 82 % 0 mm 0 W/m2
02:44 12 °C 9 °C 1023.6 hPa WNW 3.2 km/h 11.3 km/h 82 % 0 mm 0 W/m2
02:49 11.9 °C 8.9 °C 1023.6 hPa WNW 1.6 km/h 6.4 km/h 82 % 0 mm 0 W/m2
02:54 11.8 °C 9 °C 1023.6 hPa WNW 1.6 km/h 8 km/h 83 % 0 mm 0 W/m2
02:59 11.8 °C 9.2 °C 1023.6 hPa WNW 4.8 km/h 11.3 km/h 84 % 0 mm 0 W/m2
03:04 11.8 °C 9.2 °C 1023.6 hPa WNW 6.4 km/h 11.3 km/h 84 % 0 mm 0 W/m2
03:09 11.8 °C 9.2 °C 1023.6 hPa WNW 4.8 km/h 11.3 km/h 84 % 0 mm 0 W/m2
03:14 11.7 °C 9.1 °C 1023.6 hPa WNW 3.2 km/h 8 km/h 84 % 0 mm 0 W/m2
03:19 11.7 °C 9.3 °C 1023.6 hPa WNW 4.8 km/h 9.7 km/h 85 % 0 mm 0 W/m2
03:24 11.6 °C 9.2 °C 1023.6 hPa WNW 6.4 km/h 9.7 km/h 85 % 0 mm 0 W/m2
03:29 11.6 °C 9.2 °C 1023.6 hPa WNW 4.8 km/h 11.3 km/h 85 % 0 mm 0 W/m2
03:34 11.6 °C 9.2 °C 1023.6 hPa WNW 3.2 km/h 11.3 km/h 85 % 0 mm 0 W/m2
03:39 11.6 °C 9.3 °C 1023.6 hPa WNW 3.2 km/h 9.7 km/h 86 % 0 mm 0 W/m2
03:44 11.5 °C 9.2 °C 1023.6 hPa WNW 3.2 km/h 9.7 km/h 86 % 0 mm 0 W/m2
03:49 11.5 °C 9.2 °C 1023.2 hPa WNW 1.6 km/h 8 km/h 86 % 0 mm 0 W/m2
03:54 11.4 °C 9.2 °C 1023.2 hPa WNW 1.6 km/h 6.4 km/h 86 % 0 mm 0 W/m2
03:59 11.3 °C 9.1 °C 1023.2 hPa Calm   1.6 km/h 86 % 0 mm 0 W/m2
04:04 11.3 °C 9.1 °C 1023.2 hPa Calm   3.2 km/h 86 % 0 mm 0 W/m2
04:09 11.2 °C 8.9 °C 1023.2 hPa WNW 1.6 km/h 8 km/h 86 % 0 mm 0 W/m2
04:14 11.1 °C 9 °C 1023.2 hPa WNW 4.8 km/h 9.7 km/h 87 % 0 mm 0 W/m2
04:19 11.2 °C 9.3 °C 1023.2 hPa WNW 6.4 km/h 12.9 km/h 88 % 0 mm 0 W/m2
04:24 11.3 °C 9.4 °C 1023.2 hPa WNW 8 km/h 14.5 km/h 88 % 0 mm 0 W/m2
04:29 11.4 °C 9.7 °C 1023.2 hPa WNW 8 km/h 16.1 km/h 89 % 0 mm 0 W/m2
04:34 11.5 °C 9.7 °C 1023.2 hPa WNW 6.4 km/h 16.1 km/h 89 % 0 mm 0 W/m2
04:39 11.5 °C 9.6 °C 1023.2 hPa WNW 3.2 km/h 11.3 km/h 88 % 0 mm 0 W/m2
04:44 11.3 °C 9.2 °C 1023.6 hPa WNW 1.6 km/h 9.7 km/h 87 % 0 mm 0 W/m2
04:49 11.2 °C 9.1 °C 1023.2 hPa Calm     87 % 0 mm 0 W/m2
04:54 11.1 °C 9.2 °C 1023.2 hPa Calm     88 % 0 mm 0 W/m2
05:00 11 °C 9.1 °C 1023.2 hPa Calm   3.2 km/h 88 % 0 mm 5 W/m2
05:05 10.9 °C 9.2 °C 1023.6 hPa Calm   3.2 km/h 89 % 0 mm 7 W/m2
05:10 10.9 °C 9.2 °C 1023.2 hPa WNW 1.6 km/h 6.4 km/h 89 % 0 mm 9 W/m2
05:15 10.9 °C 9.3 °C 1023.2 hPa WNW 3.2 km/h 9.7 km/h 90 % 0 mm 9 W/m2
05:20 11 °C 9.4 °C 1023.6 hPa WNW 4.8 km/h 9.7 km/h 90 % 0 mm 11 W/m2
05:25 11.1 °C 9.7 °C 1023.6 hPa WNW 4.8 km/h 9.7 km/h 91 % 0 mm 12 W/m2
05:30 11.2 °C 9.8 °C 1023.6 hPa West 4.8 km/h 12.9 km/h 91 % 0 mm 14 W/m2
05:35 11.3 °C 9.9 °C 1023.2 hPa West 4.8 km/h 12.9 km/h 91 % 0 mm 18 W/m2
05:40 11.4 °C 10 °C 1023.2 hPa WNW 6.4 km/h 12.9 km/h 91 % 0 mm 19 W/m2
05:45 11.5 °C 10.1 °C 1023.2 hPa WNW 6.4 km/h 12.9 km/h 91 % 0 mm 21 W/m2
05:50 11.6 °C 10 °C 1023.2 hPa WNW 6.4 km/h 11.3 km/h 90 % 0 mm 23 W/m2
05:55 11.6 °C 10 °C 1023.2 hPa WNW 6.4 km/h 9.7 km/h 90 % 0 mm 25 W/m2
06:00 11.7 °C 10.1 °C 1023.2 hPa WNW 6.4 km/h 9.7 km/h 90 % 0 mm 28 W/m2
06:05 11.8 °C 10.2 °C 1023.2 hPa WNW 8 km/h 11.3 km/h 90 % 0 mm 30 W/m2
06:10 11.8 °C 10.1 °C 1023.2 hPa WNW 8 km/h 11.3 km/h 89 % 0 mm 88 W/m2
06:15 12 °C 10.2 °C 1023.2 hPa WNW 6.4 km/h 11.3 km/h 89 % 0 mm 104 W/m2
06:20 12.2 °C 10.4 °C 1023.2 hPa WNW 6.4 km/h 11.3 km/h 89 % 0 mm 90 W/m2
06:25 12.5 °C 10.4 °C 1023.6 hPa West 4.8 km/h 14.5 km/h 87 % 0 mm 107 W/m2
06:30 12.7 °C 10.4 °C 1023.2 hPa West 6.4 km/h 14.5 km/h 86 % 0 mm 40 W/m2
06:35 12.9 °C 10.4 °C 1023.2 hPa West 4.8 km/h 11.3 km/h 85 % 0 mm 47 W/m2
06:40 13.2 °C 10.4 °C 1023.2 hPa West 4.8 km/h 14.5 km/h 83 % 0 mm 42 W/m2
06:45 13.4 °C 10.4 °C 1023.2 hPa West 4.8 km/h 14.5 km/h 82 % 0 mm 53 W/m2
06:50 13.6 °C 10.4 °C 1023.2 hPa West 4.8 km/h 12.9 km/h 81 % 0 mm 47 W/m2
06:55 13.8 °C 10.4 °C 1023.2 hPa WNW 6.4 km/h 12.9 km/h 80 % 0 mm 63 W/m2
07:00 14 °C 10.2 °C 1023.2 hPa WNW 8 km/h 17.7 km/h 78 % 0 mm 56 W/m2
07:05 14.3 °C 9.9 °C 1023.2 hPa WNW 9.7 km/h 17.7 km/h 75 % 0 mm 65 W/m2
07:10 14.6 °C 9.8 °C 1023.2 hPa WNW 11.3 km/h 19.3 km/h 73 % 0 mm 63 W/m2
07:15 14.9 °C 9.5 °C 1023.2 hPa WNW 12.9 km/h 25.7 km/h 70 % 0 mm 67 W/m2
07:20 15.2 °C 9.3 °C 1023.2 hPa WNW 16.1 km/h 25.7 km/h 68 % 0 mm 179 W/m2
07:25 15.4 °C 9.5 °C 1023.2 hPa WNW 12.9 km/h 24.1 km/h 68 % 0 mm 253 W/m2
07:30 15.8 °C 9.4 °C 1023.2 hPa WNW 11.3 km/h 20.9 km/h 66 % 0 mm 279 W/m2
07:31 15.8 °C 9.4 °C 1023.2 hPa WNW 11.3 km/h 24.1 km/h 66 % 0 mm 281 W/m2
07:36 16.1 °C 9.5 °C 1023.2 hPa WNW 12.9 km/h 24.1 km/h 65 % 0 mm 308 W/m2
07:41 16.3 °C 9.2 °C 1022.9 hPa WNW 12.9 km/h 29 km/h 63 % 0 mm 237 W/m2
07:46 16.6 °C 9.3 °C 1023.2 hPa WNW 14.5 km/h 30.6 km/h 62 % 0 mm 315 W/m2
07:51 16.8 °C 9.2 °C 1023.2 hPa WNW 16.1 km/h 30.6 km/h 61 % 0 mm 346 W/m2
07:56 17.1 °C 9.3 °C 1023.2 hPa WNW 14.5 km/h 24.1 km/h 60 % 0 mm 366 W/m2
08:01 17.4 °C 9.3 °C 1023.2 hPa WNW 11.3 km/h 25.7 km/h 59 % 0 mm 381 W/m2
08:02 17.4 °C 9.3 °C 1023.2 hPa NW 11.3 km/h 25.7 km/h 59 % 0 mm 387 W/m2
08:07 17.6 °C 9 °C 1023.2 hPa WNW 12.9 km/h 33.8 km/h 57 % 0 mm 350 W/m2
08:12 17.7 °C 9.3 °C 1023.2 hPa WNW 16.1 km/h 33.8 km/h 58 % 0 mm 399 W/m2
08:17 17.9 °C 9.5 °C 1023.6 hPa WNW 14.5 km/h 24.1 km/h 58 % 0 mm 408 W/m2
08:22 18.1 °C 9.7 °C 1023.2 hPa NW 12.9 km/h 24.1 km/h 58 % 0 mm 406 W/m2
08:27 18.3 °C 9.6 °C 1023.6 hPa WNW 12.9 km/h 25.7 km/h 57 % 0 mm 427 W/m2
08:33 18.3 °C 9.9 °C 1023.6 hPa WNW 14.5 km/h 25.7 km/h 58 % 0 mm 434 W/m2
08:38 18.5 °C 10.1 °C 1023.6 hPa WNW 11.3 km/h 22.5 km/h 58 % 0 mm 473 W/m2
08:43 18.8 °C 10.1 °C 1023.6 hPa WNW 9.7 km/h 19.3 km/h 57 % 0 mm 478 W/m2
08:48 19.1 °C 10.4 °C 1023.6 hPa WNW 9.7 km/h 17.7 km/h 57 % 0 mm 489 W/m2
08:53 19.4 °C 10.4 °C 1023.6 hPa WNW 8 km/h 17.7 km/h 56 % 0 mm 476 W/m2
08:58 19.6 °C 10.3 °C 1023.6 hPa WNW 6.4 km/h 12.9 km/h 55 % 0 mm 504 W/m2
09:03 19.7 °C 10.4 °C 1023.6 hPa West 9.7 km/h 19.3 km/h 55 % 0 mm 533 W/m2
09:08 19.7 °C 10.1 °C 1023.6 hPa West 11.3 km/h 19.3 km/h 54 % 0 mm 536 W/m2
09:13 19.7 °C 10.4 °C 1023.6 hPa West 9.7 km/h 17.7 km/h 55 % 0 mm 548 W/m2
09:18 20 °C 10.4 °C 1023.6 hPa WNW 6.4 km/h 14.5 km/h 54 % 0 mm 564 W/m2
09:23 20.5 °C 10.9 °C 1023.6 hPa NW 8 km/h 14.5 km/h 54 % 0 mm 577 W/m2
09:28 20.7 °C 10.8 °C 1023.6 hPa NW 8 km/h 16.1 km/h 53 % 0 mm 589 W/m2
09:33 20.7 °C 10.8 °C 1023.6 hPa NW 9.7 km/h 19.3 km/h 53 % 0 mm 601 W/m2
09:38 20.8 °C 10.9 °C 1023.6 hPa NW 11.3 km/h 20.9 km/h 53 % 0 mm 613 W/m2
09:43 20.9 °C 10.7 °C 1023.6 hPa NW 12.9 km/h 24.1 km/h 52 % 0 mm 622 W/m2
09:48 20.8 °C 10.6 °C 1023.6 hPa NW 14.5 km/h 24.1 km/h 52 % 0 mm 633 W/m2
09:53 20.8 °C 10.9 °C 1023.6 hPa NW 12.9 km/h 22.5 km/h 53 % 0 mm 631 W/m2
09:58 20.8 °C 10.9 °C 1023.6 hPa WNW 12.9 km/h 20.9 km/h 53 % 0 mm 656 W/m2
10:03 20.9 °C 10.7 °C 1023.6 hPa WNW 12.9 km/h 20.9 km/h 52 % 0 mm 649 W/m2
10:08 21.1 °C 11.2 °C 1023.6 hPa NW 9.7 km/h 20.9 km/h 53 % 0 mm 663 W/m2
10:13 21.4 °C 11.1 °C 1023.6 hPa NW 9.7 km/h 22.5 km/h 52 % 0 mm 684 W/m2
10:18 21.5 °C 10.9 °C 1023.6 hPa NW 11.3 km/h 22.5 km/h 51 % 0 mm 686 W/m2
10:23 21.6 °C 11.3 °C 1023.6 hPa NW 11.3 km/h 20.9 km/h 52 % 0 mm 700 W/m2
10:28 21.9 °C 11 °C 1023.6 hPa NW 11.3 km/h 20.9 km/h 50 % 0 mm 717 W/m2
10:33 22 °C 11.1 °C 1023.6 hPa WNW 12.9 km/h 24.1 km/h 50 % 0 mm 728 W/m2
10:38 22.1 °C 11.2 °C 1023.2 hPa WNW 14.5 km/h 24.1 km/h 50 % 0 mm 737 W/m2
10:43 22.1 °C 11.2 °C 1023.2 hPa NW 12.9 km/h 22.5 km/h 50 % 0 mm 745 W/m2
10:48 22.3 °C 10.8 °C 1023.2 hPa NW 14.5 km/h 25.7 km/h 48 % 0 mm 754 W/m2
10:53 22.3 °C 10.8 °C 1023.2 hPa WNW 16.1 km/h 29 km/h 48 % 0 mm 765 W/m2
10:58 22.4 °C 10.8 °C 1023.2 hPa WNW 14.5 km/h 29 km/h 48 % 0 mm 770 W/m2
11:03 22.5 °C 10.9 °C 1023.2 hPa WNW 12.9 km/h 24.1 km/h 48 % 0 mm 780 W/m2
11:08 22.7 °C 11.4 °C 1022.9 hPa WNW 12.9 km/h 20.9 km/h 49 % 0 mm 788 W/m2
11:13 22.8 °C 11.2 °C 1022.9 hPa WNW 12.9 km/h 22.5 km/h 48 % 0 mm 780 W/m2
11:18 22.9 °C 11 °C 1022.9 hPa WNW 14.5 km/h 22.5 km/h 47 % 0 mm 780 W/m2
11:24 23 °C 10.8 °C 1022.9 hPa WNW 14.5 km/h 25.7 km/h 46 % 0 mm 812 W/m2
11:29 22.9 °C 11 °C 1022.9 hPa West 14.5 km/h 25.7 km/h 47 % 0 mm 819 W/m2
11:34 23.1 °C 11.5 °C 1022.9 hPa WNW 12.9 km/h 20.9 km/h 48 % 0 mm 810 W/m2
11:39 23.3 °C 11.7 °C 1022.9 hPa WNW 14.5 km/h 24.1 km/h 48 % 0 mm 828 W/m2
11:44 23.4 °C 11.1 °C 1022.9 hPa WNW 12.9 km/h 24.1 km/h 46 % 0 mm 835 W/m2
11:49 23.7 °C 11.4 °C 1022.9 hPa WNW 12.9 km/h 22.5 km/h 46 % 0 mm 837 W/m2
11:54 23.7 °C 11.4 °C 1022.9 hPa WNW 12.9 km/h 20.9 km/h 46 % 0 mm 842 W/m2
11:59 23.9 °C 11.9 °C 1022.9 hPa NW 11.3 km/h 19.3 km/h 47 % 0 mm 846 W/m2
12:04 24.1 °C 11.8 °C 1022.9 hPa WNW 12.9 km/h 19.3 km/h 46 % 0 mm 846 W/m2
12:09 24.1 °C 11.4 °C 1022.6 hPa WNW 14.5 km/h 24.1 km/h 45 % 0 mm 854 W/m2
12:14 24.1 °C 11.4 °C 1022.6 hPa WNW 16.1 km/h 24.1 km/h 45 % 0 mm 856 W/m2
12:19 24.1 °C 11.8 °C 1022.6 hPa WNW 14.5 km/h 24.1 km/h 46 % 0 mm 861 W/m2
12:24 24.3 °C 12.3 °C 1022.6 hPa WNW 12.9 km/h 22.5 km/h 47 % 0 mm 860 W/m2
12:29 24.3 °C 11.9 °C 1022.6 hPa WNW 12.9 km/h 22.5 km/h 46 % 0 mm 868 W/m2
12:34 24.4 °C 12 °C 1022.6 hPa WNW 12.9 km/h 20.9 km/h 46 % 0 mm 865 W/m2
12:39 24.7 °C 12.6 °C 1022.6 hPa WNW 11.3 km/h 20.9 km/h 47 % 0 mm 870 W/m2
12:44 24.8 °C 12.4 °C 1022.6 hPa WNW 11.3 km/h 20.9 km/h 46 % 0 mm 872 W/m2
12:49 24.7 °C 12.3 °C 1022.6 hPa West 16.1 km/h 25.7 km/h 46 % 0 mm 877 W/m2
12:54 24.6 °C 12.2 °C 1022.6 hPa West 17.7 km/h 25.7 km/h 46 % 0 mm 874 W/m2
12:59 24.6 °C 12.6 °C 1022.6 hPa West 14.5 km/h 25.7 km/h 47 % 0 mm 875 W/m2
13:04 24.7 °C 12.6 °C 1022.6 hPa WNW 12.9 km/h 20.9 km/h 47 % 0 mm 874 W/m2
13:09 24.9 °C 12.5 °C 1022.6 hPa WNW 12.9 km/h 22.5 km/h 46 % 0 mm 875 W/m2
13:14 24.9 °C 13.1 °C 1022.6 hPa West 11.3 km/h 22.5 km/h 48 % 0 mm 875 W/m2
13:19 25.1 °C 13 °C 1022.2 hPa West 9.7 km/h 20.9 km/h 47 % 0 mm 874 W/m2
13:24 25.4 °C 13.3 °C 1022.2 hPa WNW 11.3 km/h 20.9 km/h 47 % 0 mm 875 W/m2
13:29 25.6 °C 13.4 °C 1022.2 hPa West 11.3 km/h 19.3 km/h 47 % 0 mm 877 W/m2
13:34 25.7 °C 13.2 °C 1022.2 hPa West 12.9 km/h 22.5 km/h 46 % 0 mm 877 W/m2
13:39 25.7 °C 12.9 °C 1022.2 hPa West 14.5 km/h 24.1 km/h 45 % 0 mm 870 W/m2
13:44 25.7 °C 12.2 °C 1022.2 hPa WNW 12.9 km/h 30.6 km/h 43 % 0 mm 870 W/m2
13:49 25.8 °C 12.6 °C 1022.2 hPa NW 12.9 km/h 30.6 km/h 44 % 0 mm 874 W/m2
13:59 26.2 °C 13 °C 1022.2 hPa WNW 9.7 km/h 16.1 km/h 44 % 0 mm 863 W/m2
14:04 26.2 °C 13 °C 1022.2 hPa WNW 9.7 km/h 17.7 km/h 44 % 0 mm 863 W/m2
14:09 26.3 °C 12.7 °C 1022.2 hPa WNW 11.3 km/h 24.1 km/h 43 % 0 mm 856 W/m2
14:14 26.3 °C 12.4 °C 1021.9 hPa WNW 11.3 km/h 24.1 km/h 42 % 0 mm 849 W/m2
14:19 26.2 °C 12.3 °C 1021.9 hPa NW 9.7 km/h 20.9 km/h 42 % 0 mm 828 W/m2
14:24 26.4 °C 12.4 °C 1021.9 hPa NW 11.3 km/h 20.9 km/h 42 % 0 mm 830 W/m2
14:29 26.6 °C 12.3 °C 1021.9 hPa NW 11.3 km/h 20.9 km/h 41 % 0 mm 759 W/m2
14:34 26.4 °C 12.1 °C 1021.9 hPa WNW 12.9 km/h 19.3 km/h 41 % 0 mm 775 W/m2
14:39 26.4 °C 12.4 °C 1021.9 hPa WNW 14.5 km/h 24.1 km/h 42 % 0 mm 821 W/m2
14:44 26.6 °C 11.9 °C 1021.9 hPa WNW 14.5 km/h 24.1 km/h 40 % 0 mm 793 W/m2
14:49 26.4 °C 12.1 °C 1021.9 hPa NW 12.9 km/h 22.5 km/h 41 % 0 mm 810 W/m2
14:50 26.4 °C 12.1 °C 1021.9 hPa NW 14.5 km/h 22.5 km/h 41 % 0 mm 798 W/m2
14:55 26.4 °C 12.1 °C 1021.9 hPa NW 12.9 km/h 24.1 km/h 41 % 0 mm 788 W/m2
14:56 26.4 °C 12.1 °C 1021.9 hPa NW 12.9 km/h 24.1 km/h 41 % 0 mm 796 W/m2
15:01 26.5 °C 12.9 °C 1021.9 hPa NW 11.3 km/h 24.1 km/h 43 % 0 mm 814 W/m2
15:06 26.5 °C 12.6 °C 1021.9 hPa NW 11.3 km/h 20.9 km/h 42 % 0 mm 780 W/m2
15:11 26.5 °C 12.2 °C 1021.9 hPa NW 12.9 km/h 22.5 km/h 41 % 0 mm 800 W/m2
15:16 26.6 °C 12.3 °C 1021.9 hPa WNW 14.5 km/h 24.1 km/h 41 % 0 mm 805 W/m2
15:21 26.6 °C 12.6 °C 1021.9 hPa WNW 14.5 km/h 24.1 km/h 42 % 0 mm 788 W/m2
15:26 26.4 °C 12.4 °C 1021.9 hPa WNW 14.5 km/h 24.1 km/h 42 % 0 mm 772 W/m2
15:31 26.5 °C 12.2 °C 1021.9 hPa WNW 12.9 km/h 24.1 km/h 41 % 0 mm 773 W/m2
15:36 26.4 °C 12.1 °C 1021.9 hPa NW 12.9 km/h 22.5 km/h 41 % 0 mm 761 W/m2
15:41 26.3 °C 12 °C 1021.9 hPa NNW 12.9 km/h 22.5 km/h 41 % 0 mm 670 W/m2
15:46 26.4 °C 11.7 °C 1021.6 hPa NNW 12.9 km/h 24.1 km/h 40 % 0 mm 687 W/m2
15:51 26.4 °C 12.1 °C 1021.6 hPa NW 12.9 km/h 25.7 km/h 41 % 0 mm 745 W/m2
15:56 26.4 °C 11.7 °C 1021.6 hPa NW 14.5 km/h 25.7 km/h 40 % 0 mm 719 W/m2
16:01 26.5 °C 11.4 °C 1021.6 hPa NW 14.5 km/h 24.1 km/h 39 % 0 mm 694 W/m2
16:07 26.6 °C 11.5 °C 1021.6 hPa NW 12.9 km/h 24.1 km/h 39 % 0 mm 700 W/m2
16:12 26.7 °C 11.6 °C 1021.6 hPa WNW 12.9 km/h 20.9 km/h 39 % 0 mm 696 W/m2
16:17 26.7 °C 11.2 °C 1021.6 hPa NW 12.9 km/h 20.9 km/h 38 % 0 mm 663 W/m2
16:22 26.7 °C 11.6 °C 1021.6 hPa NW 12.9 km/h 22.5 km/h 39 % 0 mm 664 W/m2
16:27 26.6 °C 11.5 °C 1021.6 hPa NW 12.9 km/h 24.1 km/h 39 % 0 mm 626 W/m2
16:32 26.5 °C 10.6 °C 1021.6 hPa NW 16.1 km/h 30.6 km/h 37 % 0 mm 617 W/m2
16:37 26.5 °C 11.4 °C 1021.6 hPa NW 14.5 km/h 30.6 km/h 39 % 0 mm 513 W/m2
16:38 26.5 °C 11.4 °C 1021.6 hPa WNW 14.5 km/h 29 km/h 39 % 0 mm 534 W/m2
16:43 26.3 °C 10.8 °C 1021.2 hPa WNW 14.5 km/h 25.7 km/h 38 % 0 mm 633 W/m2
16:48 26.3 °C 11.2 °C 1021.2 hPa WNW 14.5 km/h 25.7 km/h 39 % 0 mm 557 W/m2
16:53 26.2 °C 11.6 °C 1021.2 hPa NW 11.3 km/h 22.5 km/h 40 % 0 mm 519 W/m2
16:58 26.3 °C 11.6 °C 1021.2 hPa NW 9.7 km/h 19.3 km/h 40 % 0 mm 578 W/m2
17:03 26.3 °C 11.2 °C 1021.2 hPa WNW 12.9 km/h 24.1 km/h 39 % 0 mm 587 W/m2
17:08 26.3 °C 11.2 °C 1021.2 hPa WNW 14.5 km/h 25.7 km/h 39 % 0 mm 570 W/m2
17:13 26.2 °C 11.2 °C 1021.2 hPa NW 12.9 km/h 25.7 km/h 39 % 0 mm 501 W/m2
17:18 26.2 °C 11.2 °C 1021.2 hPa WNW 12.9 km/h 22.5 km/h 39 % 0 mm 459 W/m2
17:23 26.2 °C 10.3 °C 1021.2 hPa WNW 12.9 km/h 22.5 km/h 37 % 0 mm 489 W/m2
17:28 26.2 °C 10.8 °C 1021.2 hPa NW 12.9 km/h 25.7 km/h 38 % 0 mm 508 W/m2
17:33 26.1 °C 11.1 °C 1021.2 hPa NW 12.9 km/h 25.7 km/h 39 % 0 mm 478 W/m2
17:38 26 °C 10.2 °C 1021.2 hPa WNW 12.9 km/h 24.1 km/h 37 % 0 mm 401 W/m2
17:43 25.9 °C 10.1 °C 1021.2 hPa WNW 11.3 km/h 25.7 km/h 37 % 0 mm 445 W/m2
17:48 25.9 °C 10.5 °C 1021.2 hPa WNW 12.9 km/h 25.7 km/h 38 % 0 mm 446 W/m2
17:53 25.9 °C 10.9 °C 1021.2 hPa NW 11.3 km/h 22.5 km/h 39 % 0 mm 464 W/m2
17:58 26.1 °C 10.7 °C 1021.2 hPa WNW 11.3 km/h 19.3 km/h 38 % 0 mm 420 W/m2
18:04 26.1 °C 10.3 °C 1020.9 hPa WNW 12.9 km/h 19.3 km/h 37 % 0 mm 431 W/m2
18:09 26 °C 10.2 °C 1021.2 hPa WNW 12.9 km/h 22.5 km/h 37 % 0 mm 424 W/m2
18:14 25.9 °C 10.1 °C 1020.9 hPa WNW 12.9 km/h 22.5 km/h 37 % 0 mm 388 W/m2
18:19 25.9 °C 10.5 °C 1020.9 hPa WNW 11.3 km/h 22.5 km/h 38 % 0 mm 383 W/m2
18:24 25.9 °C 10.5 °C 1020.9 hPa WNW 11.3 km/h 19.3 km/h 38 % 0 mm 346 W/m2
18:29 25.9 °C 10.9 °C 1020.9 hPa WNW 11.3 km/h 22.5 km/h 39 % 0 mm 353 W/m2
18:34 25.9 °C 10.5 °C 1020.9 hPa WNW 11.3 km/h 22.5 km/h 38 % 0 mm 336 W/m2
18:39 25.8 °C 10.4 °C 1020.9 hPa WNW 11.3 km/h 19.3 km/h 38 % 0 mm 320 W/m2
18:44 25.7 °C 10.3 °C 1020.9 hPa WNW 9.7 km/h 17.7 km/h 38 % 0 mm 306 W/m2
18:49 25.7 °C 10.3 °C 1020.9 hPa WNW 8 km/h 17.7 km/h 38 % 0 mm 279 W/m2
18:54 25.7 °C 10.3 °C 1021.2 hPa WNW 8 km/h 16.1 km/h 38 % 0 mm 260 W/m2
18:59 25.7 °C 10.3 °C 1020.9 hPa WNW 8 km/h 16.1 km/h 38 % 0 mm 265 W/m2
19:04 25.5 °C 10.1 °C 1020.9 hPa West 9.7 km/h 20.9 km/h 38 % 0 mm 253 W/m2
19:09 25.2 °C 10.3 °C 1020.9 hPa West 11.3 km/h 20.9 km/h 39 % 0 mm 237 W/m2
19:14 25 °C 10.1 °C 1021.2 hPa West 11.3 km/h 19.3 km/h 39 % 0 mm 223 W/m2
19:19 24.9 °C 10.4 °C 1021.2 hPa WNW 9.7 km/h 19.3 km/h 40 % 0 mm 211 W/m2
19:24 24.9 °C 10.4 °C 1021.2 hPa WNW 8 km/h 14.5 km/h 40 % 0 mm 199 W/m2
19:29 24.8 °C 10.3 °C 1021.2 hPa WNW 9.7 km/h 17.7 km/h 40 % 0 mm 185 W/m2
19:34 24.6 °C 10.1 °C 1020.9 hPa WNW 11.3 km/h 17.7 km/h 40 % 0 mm 165 W/m2
19:39 24.6 °C 10.4 °C 1021.2 hPa NW 9.7 km/h 17.7 km/h 41 % 0 mm 162 W/m2
19:44 24.5 °C 10 °C 1020.9 hPa NW 8 km/h 16.1 km/h 40 % 0 mm 144 W/m2
19:49 24.3 °C 9.8 °C 1021.2 hPa NW 9.7 km/h 17.7 km/h 40 % 0 mm 139 W/m2
19:54 24.2 °C 10.1 °C 1021.2 hPa NW 9.7 km/h 17.7 km/h 41 % 0 mm 127 W/m2
19:59 24 °C 9.9 °C 1021.2 hPa WNW 9.7 km/h 17.7 km/h 41 % 0 mm 95 W/m2
20:04 23.8 °C 10.1 °C 1021.2 hPa WNW 9.7 km/h 17.7 km/h 42 % 0 mm 60 W/m2
20:09 23.5 °C 9.8 °C 1021.2 hPa WNW 8 km/h 14.5 km/h 42 % 0 mm 37 W/m2
20:14 23.2 °C 9.9 °C 1021.2 hPa WNW 8 km/h 14.5 km/h 43 % 0 mm 33 W/m2
20:19 23 °C 10.1 °C 1021.2 hPa WNW 8 km/h 14.5 km/h 44 % 0 mm 33 W/m2
20:24 22.7 °C 10.2 °C 1021.2 hPa NW 6.4 km/h 11.3 km/h 45 % 0 mm 33 W/m2
20:29 22.5 °C 10.3 °C 1021.2 hPa NW 4.8 km/h 11.3 km/h 46 % 0 mm 32 W/m2
20:34 22.3 °C 10.1 °C 1021.2 hPa NW 4.8 km/h 9.7 km/h 46 % 0 mm 30 W/m2
20:35 22.2 °C 10.3 °C 1021.2 hPa NW 4.8 km/h 9.7 km/h 47 % 0 mm 30 W/m2
20:40 22.1 °C 10.6 °C 1021.2 hPa NW 4.8 km/h 9.7 km/h 48 % 0 mm 28 W/m2
20:45 21.9 °C 10.7 °C 1021.2 hPa NW 3.2 km/h 9.7 km/h 49 % 0 mm 26 W/m2
20:50 21.7 °C 10.5 °C 1021.2 hPa NW 3.2 km/h 9.7 km/h 49 % 0 mm 23 W/m2
20:56 21.6 °C 10.7 °C 1021.2 hPa NW 3.2 km/h 8 km/h 50 % 0 mm 21 W/m2
21:01 21.3 °C 10.4 °C 1021.2 hPa NW 4.8 km/h 9.7 km/h 50 % 0 mm 19 W/m2
21:06 21.1 °C 9.9 °C 1021.2 hPa WNW 4.8 km/h 11.3 km/h 49 % 0 mm 16 W/m2
21:11 20.8 °C 10 °C 1021.2 hPa WNW 4.8 km/h 11.3 km/h 50 % 0 mm 14 W/m2
21:16 20.7 °C 9.9 °C 1021.2 hPa NW 4.8 km/h 9.7 km/h 50 % 0 mm 12 W/m2
21:21 20.5 °C 9.7 °C 1021.2 hPa NW 3.2 km/h 9.7 km/h 50 % 0 mm 12 W/m2
21:26 20.3 °C 10.1 °C 1021.6 hPa NW 1.6 km/h 6.4 km/h 52 % 0 mm 11 W/m2
21:31 20.1 °C 9.9 °C 1021.6 hPa NW 1.6 km/h 9.7 km/h 52 % 0 mm 9 W/m2
21:36 19.8 °C 9.7 °C 1021.6 hPa NW 4.8 km/h 11.3 km/h 52 % 0 mm 5 W/m2
21:41 19.7 °C 10.1 °C 1021.2 hPa NW 4.8 km/h 11.3 km/h 54 % 0 mm 0 W/m2
21:46 19.5 °C 10.2 °C 1021.6 hPa NW 3.2 km/h 9.7 km/h 55 % 0 mm 0 W/m2
21:51 19.3 °C 11.1 °C 1021.6 hPa WNW 3.2 km/h 9.7 km/h 59 % 0 mm 0 W/m2
21:56 18.8 °C 11.1 °C 1021.6 hPa WNW 3.2 km/h 8 km/h 61 % 0 mm 0 W/m2
22:01 18.5 °C 11.1 °C 1021.6 hPa WNW 1.6 km/h 6.4 km/h 62 % 0 mm 0 W/m2
22:06 18.2 °C 11.1 °C 1021.6 hPa WNW 1.6 km/h 6.4 km/h 63 % 0 mm 0 W/m2
22:07 18.1 °C 10.7 °C 1021.6 hPa WNW 1.6 km/h 6.4 km/h 62 % 0 mm 0 W/m2
22:12 17.9 °C 10.8 °C 1021.6 hPa Calm   3.2 km/h 63 % 0 mm 0 W/m2
22:17 17.7 °C 10.8 °C 1021.6 hPa Calm   4.8 km/h 64 % 0 mm 0 W/m2
22:22 17.6 °C 10.9 °C 1021.6 hPa Calm   4.8 km/h 65 % 0 mm 0 W/m2
22:27 17.4 °C 10.7 °C 1021.6 hPa Calm   3.2 km/h 65 % 0 mm 0 W/m2
22:29 17.3 °C 10.9 °C 1021.6 hPa Calm   3.2 km/h 66 % 0 mm 0 W/m2
22:34 17.1 °C 10.7 °C 1021.6 hPa Calm   3.2 km/h 66 % 0 mm 0 W/m2
22:39 17 °C 10.8 °C 1021.6 hPa Calm   3.2 km/h 67 % 0 mm 0 W/m2
22:44 16.9 °C 10.7 °C 1021.6 hPa Calm   3.2 km/h 67 % 0 mm 0 W/m2
22:49 16.8 °C 10.8 °C 1021.6 hPa Calm   3.2 km/h 68 % 0 mm 0 W/m2
22:54 16.7 °C 10.8 °C 1021.6 hPa WNW 1.6 km/h 6.4 km/h 68 % 0 mm 0 W/m2
22:59 16.5 °C 10.6 °C 1021.6 hPa WNW 3.2 km/h 8 km/h 68 % 0 mm 0 W/m2
23:04 16.4 °C 10.7 °C 1021.6 hPa WNW 3.2 km/h 8 km/h 69 % 0 mm 0 W/m2
23:09 16.4 °C 10.7 °C 1021.6 hPa WNW 1.6 km/h 8 km/h 69 % 0 mm 0 W/m2
23:14 16.3 °C 10.6 °C 1021.6 hPa WNW 1.6 km/h 6.4 km/h 69 % 0 mm 0 W/m2
23:19 16.2 °C 10.7 °C 1021.6 hPa WNW 1.6 km/h 3.2 km/h 70 % 0 mm 0 W/m2
23:25 16.2 °C 10.7 °C 1021.6 hPa WNW 1.6 km/h 6.4 km/h 70 % 0 mm 0 W/m2
23:30 16 °C 10.7 °C 1021.6 hPa WNW 1.6 km/h 6.4 km/h 71 % 0 mm 0 W/m2
23:35 15.9 °C 10.7 °C 1021.6 hPa WNW 1.6 km/h 6.4 km/h 71 % 0 mm 0 W/m2
23:40 15.7 °C 10.7 °C 1021.6 hPa WNW 1.6 km/h 8 km/h 72 % 0 mm 0 W/m2
23:45 15.6 °C 10.6 °C 1021.6 hPa WNW 1.6 km/h 8 km/h 72 % 0 mm 0 W/m2
23:50 15.5 °C 10.4 °C 1021.6 hPa WNW 1.6 km/h 8 km/h 72 % 0 mm 0 W/m2
23:55 15.4 °C 10.6 °C 1021.6 hPa WNW 1.6 km/h 8 km/h 73 % 0 mm 0 W/m2
Delerius-Weather
Compliments of Weather Underground - 2.25 mb

Data updates at regular intervals.